Flag for Germany Weather past 2 weeks in Güstrow, Mecklenburg-Western Pomerania, Germany

Now
43 °F

Passing clouds.


Feels Like: 43 °F
Forecast: 34 / 58 °F
Wind: 1 mph from Northeast

Location: Laage


UV Index: 3 (Moderate)

Visibility: N/A


Pressure: 30.39 "Hg

Humidity: 66%

Dew point: 32 °F

Location of GüstrowLocation

Historic Weather in Güstrow

°F

Güstrow temperature yesterday

Maximum temperature yesterday: 50 °F (at 12:20 PM)
Minimum temperature yesterday: 39 °F (at 6:20 AM)
Average temperature yesterday: 45 °F

Past Weeks' High & Low Weather Summary

 TemperatureHumidityPressure
High64 °F (Apr 7, 2:20 PM)100% (Apr 3, 7:20 AM)30.45 "Hg (Apr 3, 7:20 AM)
Low30 °F (Apr 16, 5:20 AM)41% (Apr 12, 4:20 PM)29.59 "Hg (Apr 14, 7:20 AM)
Average47 °F78%29.96 "Hg
* Reported Apr 1 9:20 PM — Apr 16 9:20 PM, Güstrow, Weather by CustomWeather, © 2014

Note: Actual official high and low records may vary slightly from our data, if they occured in-between our weather recording intervals... More about our weather records

Advertising

Historic Weather Conditions — Data for Previous 24 hours

 ConditionsComfort  
Time TempWeatherWind HumidityBarometerVisibility
9:20 PM
Apr 16
43 °FPassing clouds.1 mph66%30.39 "HgN/A
8:20 PM46 °FPassing clouds.3 mph62%30.39 "HgN/A
7:20 PM52 °FScattered clouds.3 mph47%30.39 "HgN/A
6:20 PM54 °FPassing clouds.5 mph41%30.39 "HgN/A
5:20 PM54 °FPassing clouds.6 mph41%30.42 "HgN/A
4:20 PM54 °FPassing clouds.8 mph41%30.42 "HgN/A
3:20 PM54 °FPassing clouds.7 mph41%30.42 "HgN/A
2:20 PM54 °FPassing clouds.8 mph41%30.42 "HgN/A
1:20 PM52 °FPassing clouds.7 mph47%30.45 "HgN/A
12:20 PM52 °FPassing clouds.7 mph54%30.45 "HgN/A
11:20 AM52 °FPassing clouds.8 mph54%30.45 "HgN/A
10:20 AM48 °FPassing clouds.6 mph66%30.45 "HgN/A
9:20 AM46 °FPassing clouds.5 mph71%30.45 "HgN/A
8:20 AM41 °FPassing clouds.2 mph87%30.45 "HgN/A
7:20 AM34 °FFog.No wind93%30.42 "HgN/A
6:48 AM32 °FFog.2 mph93%30.42 "HgN/A
6:20 AM32 °FIce fog.1 mph93%30.42 "Hg1 mi
5:58 AM30 °FIce fog.3 mph93%30.42 "Hg0 mi
5:20 AM30 °FPassing clouds.No wind93%30.39 "HgN/A
4:20 AM32 °FChilly.No wind93%30.36 "HgN/A
3:20 AM32 °FChilly.1 mph93%30.36 "HgN/A
2:20 AM34 °FChilly.No wind93%30.36 "HgN/A
1:20 AM36 °FPassing clouds.1 mph87%30.33 "HgN/A
12:20 AM36 °FPassing clouds.5 mph93%30.33 "HgN/A
11:20 PM
Apr 15
39 °FPassing clouds.5 mph81%30.30 "HgN/A
10:20 PM41 °FPassing clouds.5 mph76%30.27 "HgN/A
Weather by CustomWeather, © 2014

See weather overview